{"data":{"norad_id":53998,"epoch":"2026-05-24T15:38:52.498464Z","epoch_age_seconds":108303,"freshness":"FRESH","line1":"1 53998U 22125AL  26144.65199651 -.00000045  00000+0  15241-4 0  9991","line2":"2 53998  53.2141 232.8722 0001224  91.9163 268.1970 15.08838480200938","mean_motion":15.0883848,"eccentricity":0.0001224,"inclination_deg":53.2141,"raan_deg":232.8722,"arg_perigee_deg":91.9163,"mean_anomaly_deg":268.197,"bstar":1.5241e-5,"rev_number":20093,"period_min":95.437650821313,"perigee_km":538.90128587164,"apogee_km":540.5947841282,"semimajor_km":6917.8850349999,"source":"CELESTRAK","updated_at":"2026-05-25T13:38:17.623590Z"}}